Weather History for Camden, AR

Change the Weather History Date:

Thursday, January 10, 2013

  Actual Average Record
Temperature  
Mean Temperature 58 °F -  
Max Temperature 64 °F 48 °F 81 °F (1957)
Min Temperature 51 °F 28 °F 0 °F (1962)
Degree Days  
Heating Degree Days 6    
Growing Degree Days 8 (Base 50)    
Moisture  
Dew Point 56 °F    
Average Humidity 87    
Maximum Humidity 94    
Minimum Humidity 77    
Precipitation  
Precipitation 0.10 in - - ()
Sea Level Pressure  
Sea Level Pressure 29.99 in    
Wind  
Wind Speed 7 mph (South)    
Max Wind Speed 14 mph    
Max Gust Speed 31 mph    
Visibility 9 miles    
Events Rain    
Averages and records for this station are not official NWS values.
T = Trace of Precipitation, MM = Missing Value Source: NWS Daily Summary

Daily Weather History Graph

Daily Weather History Graph

Search for Another Location

Airport:

Trip Planner

Search our weather history database for the weather conditions in past years. The results will help you decide how hot, cold, wet, or windy it might be!

Date:

Astronomy

Jan. 10, 2013 Rise Set
Actual Time 7:16 AM CST 5:21 PM CST
Civil Twilight 6:48 AM CST 5:48 PM CST
Nautical Twilight 6:18 AM CST 6:19 PM CST
Astronomical Twilight 5:48 AM CST 6:49 PM CST
Moon 5:56 AM CST (1/10) 4:29 PM CST (1/10)
Length of Visible Light 10h 59m
Length of Day
10h 05m
Waning Crescent, 2% of the Moon is Illuminated
Jan 10
Waning Crescent
Jan 11
New
Jan 18
First Quarter
Jan 26
Full
Feb 3
Last Quarter

Hourly Weather History & Observations

Time (CST) Temp. Dew Point Humidity Pressure Visibility Wind Dir Wind Speed Gust Speed Precip Events Conditions
12:15 AM 55.4 °F 53.6 °F 94% 30.15 in 10.0 mi East 8.1 mph - N/A Rain Light Rain
12:35 AM 55.4 °F 53.6 °F 94% 30.15 in 10.0 mi East 6.9 mph - N/A   Overcast
12:55 AM 55.4 °F 53.6 °F 94% 30.14 in 10.0 mi ENE 5.8 mph - N/A   Overcast
2:15 AM 57.2 °F 53.6 °F 88% 30.10 in 10.0 mi NNE 6.9 mph - N/A   Overcast
2:35 AM 57.2 °F 55.4 °F 94% 30.12 in 10.0 mi North 5.8 mph - N/A   Overcast
3:15 AM 57.2 °F 53.6 °F 88% 30.09 in 10.0 mi North 6.9 mph - N/A   Overcast
3:35 AM 57.2 °F 53.6 °F 88% 30.09 in 10.0 mi NNE 6.9 mph - N/A   Overcast
4:15 AM 57.2 °F 53.6 °F 88% 30.08 in 10.0 mi ENE 5.8 mph - N/A   Overcast
4:35 AM 57.2 °F 53.6 °F 88% 30.07 in 10.0 mi NE 5.8 mph - N/A   Overcast
4:55 AM 57.2 °F 55.4 °F 94% 30.06 in 10.0 mi ENE 6.9 mph - N/A   Overcast
5:15 AM 57.2 °F 53.6 °F 88% 30.05 in 10.0 mi NNE 4.6 mph - N/A Rain Light Rain
5:35 AM 57.2 °F 55.4 °F 94% 30.06 in 10.0 mi Calm Calm - N/A Rain Light Rain
6:15 AM 57.2 °F 55.4 °F 94% 30.06 in 9.0 mi Calm Calm - N/A   Overcast
6:35 AM 57.2 °F 55.4 °F 94% 30.06 in 8.0 mi NNE 3.5 mph - N/A Rain Light Rain
6:55 AM 57.2 °F 55.4 °F 94% 30.06 in 5.0 mi NNE 4.6 mph - 0.01 in Rain Light Rain
7:15 AM 57.2 °F 55.4 °F 94% 30.05 in 5.0 mi East 8.1 mph - N/A Rain Rain
7:35 AM 59.0 °F 57.2 °F 94% 30.06 in 5.0 mi ESE 10.4 mph - 0.01 in Rain Light Rain
7:55 AM 60.8 °F 59.0 °F 94% 30.02 in 4.0 mi ESE 11.5 mph 19.6 mph 0.04 in Rain Rain
8:15 AM 60.8 °F 59.0 °F 94% 30.01 in 4.0 mi ESE 13.8 mph 31.1 mph 0.04 in Rain Heavy Rain
8:35 AM 60.8 °F 57.2 °F 88% 29.97 in 8.0 mi ESE 13.8 mph 20.7 mph 0.05 in Rain Light Rain
9:15 AM 62.6 °F 57.2 °F 82% 29.97 in 10.0 mi ESE 12.7 mph 20.7 mph N/A   Clear
9:35 AM 62.6 °F 57.2 °F 82% 30.01 in 10.0 mi SW 8.1 mph 19.6 mph N/A   Clear
9:55 AM 62.6 °F 57.2 °F 82% 30.01 in 10.0 mi SSW 5.8 mph - N/A   Scattered Clouds
10:15 AM 62.6 °F 59.0 °F 88% 30.02 in 10.0 mi SSW 4.6 mph - N/A   Mostly Cloudy
10:35 AM 64.4 °F 59.0 °F 83% 30.02 in 10.0 mi SW 6.9 mph - N/A   Mostly Cloudy
10:55 AM 62.6 °F 59.0 °F 88% 30.03 in 10.0 mi SSW 5.8 mph - N/A   Overcast
11:15 AM 64.4 °F 59.0 °F 83% 30.03 in 10.0 mi South 3.5 mph - N/A   Overcast
11:35 AM 64.4 °F 59.0 °F 83% 30.02 in 10.0 mi South 4.6 mph - N/A   Overcast
11:55 AM 64.4 °F 59.0 °F 83% 30.00 in 10.0 mi South 5.8 mph - N/A   Overcast
12:15 PM 64.4 °F 59.0 °F 83% 29.99 in 10.0 mi SSE 8.1 mph - N/A   Overcast
12:35 PM 64.4 °F 59.0 °F 83% 29.97 in 10.0 mi SSE 6.9 mph - N/A   Overcast
12:55 PM 64.4 °F 59.0 °F 83% 29.94 in 10.0 mi SSE 9.2 mph 17.3 mph N/A   Overcast
1:15 PM 64.4 °F 59.0 °F 83% 29.93 in 10.0 mi SSE 12.7 mph 21.9 mph N/A   Overcast
1:35 PM 64.4 °F 59.0 °F 83% 29.92 in 10.0 mi SSE 12.7 mph 18.4 mph N/A   Overcast
1:55 PM 64.4 °F 59.0 °F 83% 29.91 in 10.0 mi SSE 12.7 mph 17.3 mph N/A   Overcast
2:15 PM 64.4 °F 59.0 °F 83% 29.90 in 10.0 mi SSE 11.5 mph 20.7 mph N/A   Overcast
2:35 PM 64.4 °F 59.0 °F 83% 29.90 in 7.0 mi SSE 9.2 mph - N/A   Overcast
2:55 PM 64.4 °F 59.0 °F 83% 29.90 in 10.0 mi South 12.7 mph 17.3 mph N/A   Overcast
3:15 PM 62.6 °F 59.0 °F 88% 29.90 in 4.0 mi South 12.7 mph - N/A   Overcast
3:35 PM 62.6 °F 59.0 °F 88% 29.90 in 3.0 mi SSW 12.7 mph 19.6 mph N/A Rain Light Rain
3:55 PM 64.4 °F 59.0 °F 83% 29.89 in 9.0 mi South 12.7 mph 18.4 mph N/A   Overcast
4:15 PM 62.6 °F 59.0 °F 88% 29.89 in 9.0 mi South 10.4 mph 16.1 mph N/A   Overcast
4:35 PM 64.4 °F 59.0 °F 83% 29.89 in 10.0 mi South 11.5 mph 16.1 mph N/A   Overcast
4:55 PM 64.4 °F 59.0 °F 83% 29.90 in 10.0 mi South 9.2 mph - N/A   Overcast
5:15 PM 64.4 °F 57.2 °F 77% 29.90 in 10.0 mi South 8.1 mph - N/A   Mostly Cloudy
5:35 PM 62.6 °F 57.2 °F 82% 29.90 in 10.0 mi South 9.2 mph - N/A   Partly Cloudy
5:55 PM 62.6 °F 57.2 °F 82% 29.91 in 10.0 mi SSW 8.1 mph - N/A   Clear
6:15 PM 62.6 °F 57.2 °F 82% 29.93 in 10.0 mi SSW 8.1 mph - N/A   Clear
6:35 PM 60.8 °F 55.4 °F 82% 29.94 in 10.0 mi SW 5.8 mph - N/A   Clear
6:55 PM 59.0 °F 57.2 °F 94% 29.95 in 10.0 mi SSW 6.9 mph - N/A   Clear
7:15 PM 59.0 °F 55.4 °F 88% 29.95 in 10.0 mi South 6.9 mph - N/A   Clear
7:35 PM 59.0 °F 55.4 °F 88% 29.96 in 10.0 mi SSW 5.8 mph - N/A   Clear
7:55 PM 59.0 °F 55.4 °F 88% 29.96 in 10.0 mi South 5.8 mph - N/A   Clear
8:15 PM 59.0 °F 55.4 °F 88% 29.96 in 10.0 mi SSW 6.9 mph - N/A   Clear
8:35 PM 57.2 °F 53.6 °F 88% 29.97 in 10.0 mi SSW 6.9 mph - N/A   Clear
8:55 PM 57.2 °F 53.6 °F 88% 29.97 in 10.0 mi SSW 9.2 mph - N/A   Clear
9:15 PM 57.2 °F 53.6 °F 88% 29.97 in 10.0 mi South 8.1 mph - N/A   Clear
9:35 PM 57.2 °F 51.8 °F 82% 29.97 in 10.0 mi SSW 6.9 mph - N/A   Clear
9:55 PM 57.2 °F 51.8 °F 82% 29.98 in 10.0 mi SSW 5.8 mph - N/A   Clear
10:15 PM 55.4 °F 50.0 °F 82% 29.98 in 10.0 mi SSW 6.9 mph - N/A   Clear
10:35 PM 55.4 °F 50.0 °F 82% 29.98 in 10.0 mi SSW 5.8 mph - N/A   Clear
10:55 PM 53.6 °F 50.0 °F 88% 29.99 in 10.0 mi SSW 4.6 mph - N/A   Clear
11:15 PM 53.6 °F 50.0 °F 88% 29.99 in 10.0 mi SW 4.6 mph - N/A   Clear
11:35 PM 53.6 °F 50.0 °F 88% 29.99 in 10.0 mi SSW 3.5 mph - N/A   Clear
11:55 PM 51.8 °F 50.0 °F 94% 29.99 in 10.0 mi SSW 3.5 mph - N/A   Clear